Track YAOGAN-30 C now! 10-day predictions YAOGAN-30 C is classified as:
1 42947U 17058C 21058.54502803 .00000231 00000-0 26385-4 0 9994 2 42947 34.9993 159.9233 0007232 8.5447 351.5379 14.89877086186106